Time,TemperatureF,DewpointF,PressureIn,WindDirection,WindDirectionDegrees,WindSpeedMPH,WindSpeedGustMPH,Humidity,HourlyPrecipIn,Conditions,Clouds,dailyrainin,SoftwareType,DateUTC
2013-07-16 00:01:00,75.0,70.0,-100.00,SE,130,8.0,12.0,83,0.00,,,0.00,,2013-07-16 05:01:00,
2013-07-16 00:22:00,74.0,70.0,-100.00,SE,130,6.0,9.0,87,0.00,,,0.00,,2013-07-16 05:22:00,
2013-07-16 00:32:00,74.0,70.0,-100.00,SE,125,5.0,6.0,90,0.00,,,0.00,,2013-07-16 05:32:00,
2013-07-16 01:11:00,73.0,72.0,-100.00,SE,135,5.0,6.0,93,0.00,,,0.00,,2013-07-16 06:11:00,
2013-07-16 01:22:00,73.0,72.0,-100.00,SE,130,4.0,6.0,94,0.00,,,0.00,,2013-07-16 06:22:00,
2013-07-16 01:43:00,73.0,72.0,-100.00,SE,135,6.0,7.0,93,0.00,,,0.00,,2013-07-16 06:43:00,
2013-07-16 02:22:00,72.0,72.0,-100.00,SE,130,7.0,9.0,98,0.00,,,0.00,,2013-07-16 07:22:00,
2013-07-16 02:32:00,72.0,72.0,-100.00,SE,135,7.0,9.0,97,0.00,,,0.00,,2013-07-16 07:32:00,
2013-07-16 03:01:00,72.0,72.0,-100.00,SE,145,7.0,9.0,98,0.00,,,0.00,,2013-07-16 08:01:00,
2013-07-16 05:01:00,70.0,70.0,-100.00,SSE,150,7.0,9.0,99,0.00,,,0.00,,2013-07-16 10:01:00,
2013-07-16 05:11:00,70.0,70.0,-100.00,SSE,150,6.0,9.0,99,0.00,,,0.00,,2013-07-16 10:11:00,
2013-07-16 05:22:00,70.0,70.0,-100.00,SSE,155,6.0,9.0,99,0.00,,,0.00,,2013-07-16 10:22:00,
2013-07-16 05:31:00,70.0,70.0,-100.00,SSE,150,7.0,9.0,99,0.00,,,0.00,,2013-07-16 10:31:00,
2013-07-16 05:52:00,70.0,70.0,-100.00,SSE,150,6.0,9.0,99,0.00,,,0.00,,2013-07-16 10:52:00,
2013-07-16 06:42:00,70.0,70.0,-100.00,SSE,150,6.0,8.0,99,0.00,,,0.00,,2013-07-16 11:42:00,
2013-07-16 06:52:00,70.0,70.0,-100.00,SSE,150,7.0,9.0,99,0.00,,,0.00,,2013-07-16 11:52:00,
2013-07-16 07:22:00,72.0,72.0,-100.00,SSE,165,6.0,8.0,97,0.00,,,0.00,,2013-07-16 12:22:00,
2013-07-16 07:32:00,72.0,72.0,-100.00,SSE,165,6.0,8.0,96,0.00,,,0.00,,2013-07-16 12:32:00,
2013-07-16 07:53:00,74.0,72.0,-100.00,South,170,6.0,8.0,93,0.00,,,0.00,,2013-07-16 12:53:00,
2013-07-16 08:01:00,74.0,72.0,-100.00,South,175,6.0,8.0,91,0.00,,,0.00,,2013-07-16 13:01:00,
2013-07-16 08:11:00,76.0,72.0,-100.00,South,180,7.0,9.0,87,0.00,,,0.00,,2013-07-16 13:11:00,
2013-07-16 08:21:00,76.0,72.0,-100.00,South,180,6.0,10.0,86,0.00,,,0.00,,2013-07-16 13:21:00,
2013-07-16 08:52:00,78.0,72.0,-100.00,South,185,9.0,12.0,81,0.00,,,0.00,,2013-07-16 13:52:00,
2013-07-16 09:21:00,79.0,72.0,-100.00,South,190,8.0,12.0,75,0.00,,,0.00,,2013-07-16 14:21:00,
2013-07-16 09:52:00,80.0,72.0,-100.00,South,190,9.0,13.0,74,0.00,,,0.00,,2013-07-16 14:52:00,
2013-07-16 10:01:00,80.0,70.0,-100.00,SSW,195,9.0,12.0,70,0.00,,,0.00,,2013-07-16 15:01:00,
2013-07-16 10:21:00,81.0,72.0,-100.00,SSW,200,8.0,11.0,71,0.00,,,0.00,,2013-07-16 15:21:00,
2013-07-16 10:53:00,82.0,70.0,-100.00,SSW,200,9.0,13.0,66,0.00,,,0.00,,2013-07-16 15:53:00,
2013-07-16 11:01:00,82.0,70.0,-100.00,SSW,195,9.0,12.0,67,0.00,,,0.00,,2013-07-16 16:01:00,
2013-07-16 11:11:00,83.0,73.0,-100.00,South,190,6.0,12.0,70,0.00,,,0.00,,2013-07-16 16:11:00,
2013-07-16 11:21:00,83.0,72.0,-100.00,SW,215,10.0,14.0,68,0.00,,,0.00,,2013-07-16 16:21:00,
2013-07-16 11:52:00,84.0,70.0,-100.00,SW,215,14.0,17.0,61,0.00,,,0.00,,2013-07-16 16:52:00,
2013-07-16 12:02:00,84.0,70.0,-100.00,SSW,210,12.0,16.0,61,0.00,,,0.00,,2013-07-16 17:02:00,
2013-07-16 12:22:00,85.0,72.0,-100.00,SSW,195,11.0,16.0,63,0.00,,,0.00,,2013-07-16 17:22:00,
2013-07-16 12:32:00,85.0,72.0,-100.00,SSW,205,12.0,17.0,62,0.00,,,0.00,,2013-07-16 17:32:00,
2013-07-16 12:43:00,86.0,70.0,-100.00,SSW,210,11.0,17.0,57,0.00,,,0.00,,2013-07-16 17:43:00,
2013-07-16 12:53:00,85.0,68.0,-100.00,SSW,205,13.0,18.0,56,0.00,,,0.00,,2013-07-16 17:53:00,
2013-07-16 13:21:00,87.0,66.0,-100.00,SW,220,12.0,19.0,50,0.00,,,0.00,,2013-07-16 18:21:00,
2013-07-16 13:22:00,86.0,68.0,-100.00,SW,220,15.0,18.0,52,0.00,,,0.00,,2013-07-16 18:22:00,
2013-07-16 13:32:00,86.0,66.0,-100.00,SSW,205,14.0,20.0,49,0.00,,,0.00,,2013-07-16 18:32:00,
2013-07-16 13:52:00,87.0,66.0,-100.00,SW,220,12.0,19.0,50,0.00,,,0.00,,2013-07-16 18:52:00,
2013-07-16 14:01:00,87.0,66.0,-100.00,SW,220,12.0,19.0,50,0.00,,,0.00,,2013-07-16 19:01:00,
2013-07-16 14:11:00,87.0,66.0,-100.00,SW,220,12.0,19.0,50,0.00,,,0.00,,2013-07-16 19:11:00,
2013-07-16 15:22:00,87.0,64.0,-100.00,SSW,200,17.0,23.0,46,0.00,,,0.00,,2013-07-16 20:22:00,
2013-07-16 15:52:00,88.0,64.0,-100.00,SSW,200,15.0,19.0,45,0.00,,,0.00,,2013-07-16 20:52:00,
2013-07-16 16:01:00,88.0,63.0,-100.00,South,185,17.0,22.0,42,0.00,,,0.00,,2013-07-16 21:01:00,
2013-07-16 16:11:00,89.0,66.0,-100.00,SSW,195,12.0,18.0,48,0.00,,,0.00,,2013-07-16 21:11:00,
2013-07-16 16:32:00,88.0,64.0,-100.00,SSW,210,16.0,21.0,46,0.00,,,0.00,,2013-07-16 21:32:00,
2013-07-16 16:52:00,88.0,66.0,-100.00,SSW,200,15.0,20.0,48,0.00,,,0.00,,2013-07-16 21:52:00,
2013-07-16 17:01:00,88.0,68.0,-100.00,SSW,205,12.0,18.0,50,0.00,,,0.00,,2013-07-16 22:01:00,
2013-07-16 17:11:00,88.0,66.0,-100.00,SSW,210,14.0,19.0,47,0.00,,,0.00,,2013-07-16 22:11:00,
2013-07-16 17:22:00,88.0,66.0,-100.00,SSW,210,12.0,19.0,48,0.00,,,0.00,,2013-07-16 22:22:00,
2013-07-16 17:33:00,88.0,64.0,-100.00,SSW,205,16.0,18.0,46,0.00,,,0.00,,2013-07-16 22:33:00,
2013-07-16 17:52:00,87.0,66.0,-100.00,SSW,205,12.0,18.0,49,0.00,,,0.00,,2013-07-16 22:52:00,
2013-07-16 18:01:00,87.0,66.0,-100.00,SW,220,11.0,16.0,50,0.00,,,0.00,,2013-07-16 23:01:00,
2013-07-16 18:22:00,87.0,68.0,-100.00,SSW,210,10.0,15.0,52,0.00,,,0.00,,2013-07-16 23:22:00,
2013-07-16 18:32:00,87.0,66.0,-100.00,SW,225,9.0,13.0,51,0.00,,,0.00,,2013-07-16 23:32:00,
2013-07-16 18:52:00,87.0,66.0,-100.00,SSW,200,10.0,16.0,51,0.00,,,0.00,,2013-07-16 23:52:00,
2013-07-16 19:01:00,87.0,68.0,-100.00,SSW,210,9.0,13.0,53,0.00,,,0.00,,2013-07-17 00:01:00,
2013-07-16 19:11:00,87.0,68.0,-100.00,SSW,205,8.0,12.0,54,0.00,,,0.00,,2013-07-17 00:11:00,
2013-07-16 19:22:00,86.0,68.0,-100.00,SSW,200,7.0,13.0,55,0.00,,,0.00,,2013-07-17 00:22:00,
2013-07-16 19:33:00,86.0,68.0,-100.00,SSW,200,7.0,10.0,54,0.00,,,0.00,,2013-07-17 00:33:00,
2013-07-16 19:42:00,86.0,70.0,-100.00,SSW,210,7.0,12.0,57,0.00,,,0.00,,2013-07-17 00:42:00,
2013-07-16 20:01:00,85.0,68.0,-100.00,SSW,210,7.0,10.0,58,0.00,,,0.00,,2013-07-17 01:01:00,
2013-07-16 20:11:00,84.0,70.0,-100.00,SSW,205,7.0,10.0,61,0.00,,,0.00,,2013-07-17 01:11:00,
2013-07-16 20:32:00,83.0,68.0,-100.00,SSW,200,7.0,10.0,61,0.00,,,0.00,,2013-07-17 01:32:00,
2013-07-16 21:01:00,80.0,68.0,-100.00,SSW,200,6.0,9.0,66,0.00,,,0.00,,2013-07-17 02:01:00,
2013-07-16 21:11:00,79.0,70.0,-100.00,South,190,6.0,7.0,71,0.00,,,0.00,,2013-07-17 02:11:00,
2013-07-16 21:22:00,78.0,70.0,-100.00,South,190,6.0,7.0,74,0.00,,,0.00,,2013-07-17 02:22:00,
2013-07-16 21:53:00,75.0,70.0,-100.00,South,170,7.0,9.0,80,0.00,,,0.00,,2013-07-17 02:53:00,
2013-07-16 22:01:00,75.0,68.0,-100.00,South,180,4.0,7.0,79,0.00,,,0.00,,2013-07-17 03:01:00,
2013-07-16 22:22:00,76.0,70.0,-100.00,South,180,1.0,1.0,80,0.00,,,0.00,,2013-07-17 03:22:00,
2013-07-16 22:53:00,74.0,68.0,-100.00,SSE,160,4.0,4.0,82,0.00,,,0.00,,2013-07-17 03:53:00,
2013-07-16 23:01:00,74.0,68.0,-100.00,SSE,165,4.0,4.0,83,0.00,,,0.00,,2013-07-17 04:01:00,
2013-07-16 23:11:00,73.0,68.0,-100.00,SSE,160,6.0,6.0,84,0.00,,,0.00,,2013-07-17 04:11:00,
2013-07-16 23:22:00,72.0,68.0,-100.00,SSE,160,6.0,7.0,86,0.00,,,0.00,,2013-07-17 04:22:00,
2013-07-16 23:53:00,73.0,68.0,-100.00,SSE,165,4.0,4.0,84,0.00,,,0.00,,2013-07-17 04:53:00,